Location: Wien
(48.2082°N, 16.3738°E)
Time: 00:49:21
(UTC+02:00)

DOVE 4 - Pass Details

Date: 23 March 2019
Orbit: 589 x 801 km, 97.8° (Epoch: 13 October)

Event Time Altitude Azimuth Distance (km) Brightness Sun altitude
Rises 04:32:27 0° 1° (N) 2,980 ? -13.9°
Reaches altitude 10° 04:35:14 10° 344° (NNW) 2,028 ? -13.5°
Maximum altitude 04:38:18 19° 299° (WNW) 1,484 ? -13.0°
Enters shadow 04:39:30 17° 278° (W) 1,562 ? -12.8°
